Ocean City, MD

7:54 AM EDT on August 24, 2017 (GMT -0400)
Ocean City Municipal

Weather History for KOXB - February, 2014

Change the Weather History Date:

Tuesday, February 4, 2014

  Actual Average (KSBY) Record (KSBY)
Temperature  
Mean Temperature 36 °F -  
Max Temperature 39 °F 43 °F 69 °F (1991)
Min Temperature 33 °F 25 °F 5 °F (1981)
Degree Days  
Heating Degree Days 29    
Moisture  
Dew Point 31 °F    
Average Humidity 84    
Maximum Humidity 96    
Minimum Humidity 72    
Precipitation  
Precipitation 0.00 in - - ()
Sea Level Pressure  
Sea Level Pressure 30.32 in    
Wind  
Wind Speed 8 mph (NE)    
Max Wind Speed 13 mph    
Max Gust Speed -    
Visibility 8 miles    
Events Rain    
Averages and records for this station are not official NWS values.
T = Trace of Precipitation, MM = Missing Value Source: NWS Daily Summary

Daily Weather History Graph

Daily Weather History Graph

Search for Another Location

Airport or City:

Trip Planner

Search our weather history database for the weather conditions in past years. The results will help you decide how hot, cold, wet, or windy it might be!

Date:

Astronomy

Feb. 04, 2014 Rise Set
Actual Time 7:02 AM EST 5:26 PM EST
Civil Twilight 6:35 AM EST 5:54 PM EST
Nautical Twilight 6:03 AM EST 6:25 PM EST
Astronomical Twilight 5:32 AM EST 6:56 PM EST
Moon 9:44 AM EST (2/4) 11:12 PM EST (2/4)
Length of Visible Light 11h 19m
Length of Day
10h 23m
Waxing Crescent, 29% of the Moon is Illuminated
Feb 4
Waxing Crescent
Feb 6
First Quarter
Feb 14
Full
Feb 22
Last Quarter
Mar 1
New

Hourly Weather History & Observations

Time (EST) Temp. Windchill Dew Point Humidity Pressure Visibility Wind Dir Wind Speed Gust Speed Precip Events Conditions
12:23 AM 34.0 °F 27.2 °F 30.0 °F 85% 30.31 in 10.0 mi North 8.1 mph - N/A   Overcast
12:49 AM 33.8 °F 28.6 °F 30.2 °F 87% 30.32 in 10.0 mi NNE 5.8 mph - N/A   Overcast
12:53 AM 34.0 °F 28.0 °F 30.0 °F 85% 30.33 in 10.0 mi North 6.9 mph - N/A   Overcast
1:53 AM 34.0 °F - 30.0 °F 85% 30.34 in 10.0 mi North - - N/A   Overcast
2:53 AM 34.0 °F 26.6 °F 28.9 °F 82% 30.34 in 10.0 mi NNE 9.2 mph - N/A   Overcast
3:30 AM 34.0 °F 29.8 °F 28.9 °F 82% 30.35 in 10.0 mi North 4.6 mph - N/A   Overcast
3:53 AM 34.0 °F 27.2 °F 28.9 °F 82% 30.36 in 10.0 mi North 8.1 mph - N/A   Overcast
4:53 AM 34.0 °F 28.0 °F 28.9 °F 82% 30.37 in 10.0 mi North 6.9 mph - N/A   Overcast
5:53 AM 34.0 °F 27.2 °F 27.0 °F 75% 30.39 in 10.0 mi NNE 8.1 mph - N/A   Overcast
6:53 AM 33.1 °F 26.9 °F 27.0 °F 78% 30.40 in 10.0 mi North 6.9 mph - N/A   Overcast
7:53 AM 33.1 °F 26.1 °F 27.0 °F 78% 30.42 in 10.0 mi North 8.1 mph - N/A   Overcast
8:53 AM 34.0 °F 27.2 °F 27.0 °F 75% 30.43 in 10.0 mi NNE 8.1 mph - N/A   Overcast
9:53 AM 34.0 °F 28.8 °F 27.0 °F 75% 30.46 in 10.0 mi NNE 5.8 mph - N/A   Overcast
10:53 AM 34.0 °F 29.8 °F 27.0 °F 75% 30.45 in 10.0 mi NNE 4.6 mph - N/A   Overcast
11:53 AM 36.0 °F 30.3 °F 28.0 °F 73% 30.44 in 10.0 mi North 6.9 mph - N/A   Overcast
12:53 PM 37.0 °F 31.6 °F 28.9 °F 73% 30.39 in 10.0 mi NE 6.9 mph - N/A   Overcast
1:53 PM 36.0 °F 29.0 °F 28.0 °F 73% 30.39 in 10.0 mi ENE 9.2 mph - N/A   Overcast
2:53 PM 35.1 °F 28.6 °F 27.0 °F 72% 30.38 in 10.0 mi NE 8.1 mph - N/A   Overcast
3:53 PM 35.1 °F 27.4 °F 28.0 °F 76% 30.35 in 10.0 mi NE 10.4 mph - N/A   Overcast
4:53 PM 35.1 °F 29.3 °F 28.9 °F 78% 30.35 in 10.0 mi NE 6.9 mph - N/A   Overcast
5:20 PM 36.0 °F 29.6 °F 30.0 °F 79% 30.34 in 10.0 mi ENE 8.1 mph - N/A   Overcast
5:42 PM 36.0 °F 30.3 °F 32.0 °F 86% 30.34 in 10.0 mi ENE 6.9 mph - N/A   Overcast
5:53 PM 37.0 °F 31.6 °F 32.0 °F 82% 30.33 in 10.0 mi ENE 6.9 mph - N/A   Overcast
6:53 PM 37.9 °F 32.1 °F 33.1 °F 83% 30.34 in 10.0 mi NE 8.1 mph - N/A   Overcast
7:53 PM 37.9 °F 32.1 °F 33.1 °F 83% 30.32 in 10.0 mi NE 8.1 mph - N/A   Overcast
8:11 PM 37.9 °F 32.1 °F 33.1 °F 83% 30.33 in 5.0 mi NE 8.1 mph - N/A   Haze
8:53 PM 37.0 °F 29.8 °F 34.0 °F 89% 30.29 in 3.0 mi ENE 10.4 mph - N/A   Overcast
9:00 PM 37.0 °F 30.4 °F 34.0 °F 89% 30.29 in 2.5 mi NE 9.2 mph - N/A   Overcast
9:13 PM 37.0 °F 29.3 °F 35.1 °F 93% 30.28 in 2.5 mi ENE 11.5 mph - N/A   Overcast
9:24 PM 37.9 °F 30.0 °F 35.1 °F 89% 30.26 in 3.0 mi NE 12.7 mph - N/A   Overcast
9:31 PM 37.9 °F 31.5 °F 35.1 °F 89% 30.26 in 3.0 mi NE 9.2 mph - N/A   Overcast
9:53 PM 37.9 °F 31.5 °F 36.0 °F 93% 30.26 in 4.0 mi NE 9.2 mph - 0.00 in Rain Light Rain
10:43 PM 37.9 °F 30.5 °F 36.0 °F 93% 30.22 in 2.5 mi ENE 11.5 mph - 0.00 in Rain Light Rain
10:53 PM 37.9 °F 30.9 °F 36.0 °F 93% 30.21 in 3.0 mi ENE 10.4 mph - 0.00 in Rain Light Rain
11:20 PM 39.0 °F 31.8 °F 37.0 °F 93% 30.19 in 2.5 mi ENE 11.5 mph - 0.00 in Rain Light Rain
11:29 PM 39.0 °F 31.8 °F 37.0 °F 93% 30.18 in 3.0 mi ENE 11.5 mph - 0.00 in Rain Light Rain
11:39 PM 39.0 °F 32.3 °F 37.0 °F 93% 30.16 in 2.5 mi ENE 10.4 mph - 0.00 in Rain Light Rain
11:53 PM 39.0 °F 32.3 °F 37.0 °F 93% 30.15 in 3.0 mi ENE 10.4 mph - 0.00 in Rain Light Rain
11:55 PM 39.0 °F 31.8 °F 37.9 °F 96% 30.15 in 2.5 mi ENE 11.5 mph - 0.00 in Rain Light Rain